Terug naar catalogus

STARLINK-32038

ActiefCommunicatieVLEO
NORAD 60281·PAYLOAD·🇺🇸 United States

Gelanceerd Jul 28, 2024 vanaf Cape Canaveral Space Force Station

Loading…

Volgende Passages (komende 24 uur)

TLE

VersSource: CelesTrak SupGP

Epoch: Sep 14, 2026, 22:13 UTC

1 60281C 24132D   26257.92618056  .00038967  00000+0  11513-2 0  2570
2 60281  53.1562 251.6062 0001306  90.6538 113.5465 15.34370912    15

Volg STARLINK-32038 in realtime met AllMySat

Download on the App Store